TimeEDT,TemperatureF,Dew PointF,Humidity,Sea Level PressureIn,VisibilityMPH,Wind Direction,Wind SpeedMPH,Gust SpeedMPH,PrecipitationIn,Events,Conditions,WindDirDegrees,DateUTC
12:15 AM,75.2,73.4,94,30.00,7.0,SW,4.6,-,N/A,,Clear,220,2013-08-29 04:15:00
12:35 AM,75.2,73.4,94,29.99,7.0,SSW,3.5,-,N/A,,Clear,210,2013-08-29 04:35:00
12:55 AM,75.2,73.4,94,29.99,7.0,SW,3.5,-,N/A,,Clear,220,2013-08-29 04:55:00
1:15 AM,75.2,75.2,100,29.98,7.0,SW,3.5,-,N/A,,Clear,230,2013-08-29 05:15:00
1:35 AM,75.2,73.4,94,29.98,7.0,SW,3.5,-,N/A,,Clear,230,2013-08-29 05:35:00
1:55 AM,75.2,75.2,100,29.98,7.0,WSW,3.5,-,N/A,,Clear,240,2013-08-29 05:55:00
2:15 AM,75.2,75.2,100,29.97,7.0,Calm,Calm,-,N/A,,Clear,0,2013-08-29 06:15:00
2:35 AM,75.2,75.2,100,29.97,7.0,West,3.5,-,N/A,,Clear,270,2013-08-29 06:35:00
2:55 AM,75.2,75.2,100,29.96,7.0,West,3.5,-,N/A,,Clear,270,2013-08-29 06:55:00
3:15 AM,75.2,75.2,100,29.97,5.0,West,3.5,-,N/A,,Clear,260,2013-08-29 07:15:00
3:35 AM,75.2,75.2,100,29.96,5.0,West,3.5,-,N/A,,Clear,270,2013-08-29 07:35:00
3:55 AM,75.2,75.2,100,29.96,7.0,NW,6.9,-,N/A,,Clear,310,2013-08-29 07:55:00
4:15 AM,75.2,75.2,100,29.96,7.0,WNW,4.6,-,N/A,,Clear,300,2013-08-29 08:15:00
4:35 AM,75.2,73.4,94,29.96,7.0,WNW,5.8,-,N/A,,Clear,290,2013-08-29 08:35:00
4:55 AM,75.2,73.4,94,29.96,7.0,WNW,4.6,-,N/A,,Clear,290,2013-08-29 08:55:00
5:15 AM,75.2,75.2,100,29.96,7.0,Calm,Calm,-,N/A,,Clear,0,2013-08-29 09:15:00
5:35 AM,75.2,75.2,100,29.96,7.0,WNW,3.5,-,N/A,,Clear,300,2013-08-29 09:35:00
5:55 AM,75.2,75.2,100,29.97,7.0,WNW,5.8,-,N/A,,Clear,300,2013-08-29 09:55:00
6:15 AM,75.2,75.2,100,29.97,7.0,WNW,6.9,-,N/A,,Clear,300,2013-08-29 10:15:00
6:35 AM,75.2,73.4,94,29.97,7.0,WNW,5.8,-,N/A,,Clear,300,2013-08-29 10:35:00
6:55 AM,75.2,73.4,94,29.97,7.0,WNW,5.8,-,N/A,,Clear,300,2013-08-29 10:55:00
7:15 AM,75.2,75.2,100,29.98,5.0,WNW,4.6,-,N/A,,Clear,300,2013-08-29 11:15:00
7:35 AM,75.2,73.4,94,29.98,7.0,WNW,5.8,-,N/A,,Clear,300,2013-08-29 11:35:00
7:55 AM,75.2,73.4,94,29.98,7.0,WNW,4.6,-,N/A,,Clear,300,2013-08-29 11:55:00
8:15 AM,75.2,73.4,94,29.99,7.0,NW,5.8,-,N/A,,Clear,310,2013-08-29 12:15:00
8:35 AM,77.0,73.4,89,29.99,7.0,WNW,4.6,-,N/A,,Clear,300,2013-08-29 12:35:00
8:55 AM,80.6,75.2,84,30.00,10.0,WNW,5.8,-,N/A,,Clear,300,2013-08-29 12:55:00
9:15 AM,80.6,73.4,79,29.99,10.0,NW,4.6,-,N/A,,Clear,310,2013-08-29 13:15:00
9:35 AM,80.6,73.4,79,29.99,10.0,WNW,4.6,-,N/A,,Clear,300,2013-08-29 13:35:00
9:55 AM,82.4,73.4,74,29.99,10.0,WNW,5.8,-,N/A,,Clear,300,2013-08-29 13:55:00
10:15 AM,82.4,73.4,74,29.99,10.0,WNW,4.6,-,N/A,,Clear,300,2013-08-29 14:15:00
10:35 AM,86.0,73.4,66,30.00,10.0,NW,4.6,-,N/A,,Clear,310,2013-08-29 14:35:00
10:55 AM,86.0,71.6,62,29.99,10.0,WNW,3.5,-,N/A,,Clear,300,2013-08-29 14:55:00
11:15 AM,86.0,71.6,62,29.99,10.0,WNW,4.6,-,N/A,,Clear,290,2013-08-29 15:15:00
11:35 AM,87.8,71.6,58,29.99,10.0,Calm,Calm,-,N/A,,Clear,0,2013-08-29 15:35:00
11:55 AM,87.8,71.6,58,29.99,10.0,North,6.9,-,N/A,,Clear,360,2013-08-29 15:55:00
12:15 PM,87.8,69.8,55,29.99,10.0,NNW,3.5,-,N/A,,Clear,340,2013-08-29 16:15:00
12:35 PM,87.8,69.8,55,29.98,10.0,WNW,4.6,-,N/A,,Clear,290,2013-08-29 16:35:00
12:55 PM,87.8,69.8,55,29.98,10.0,West,5.8,-,N/A,,Clear,280,2013-08-29 16:55:00
1:15 PM,89.6,69.8,52,29.97,10.0,North,3.5,-,N/A,,Clear,360,2013-08-29 17:15:00
1:35 PM,89.6,69.8,52,29.98,10.0,NNW,4.6,-,N/A,,Clear,330,2013-08-29 17:35:00
1:55 PM,89.6,69.8,52,29.97,10.0,WNW,5.8,-,N/A,,Clear,300,2013-08-29 17:55:00
2:15 PM,91.4,69.8,49,29.96,10.0,WNW,3.5,-,N/A,,Clear,290,2013-08-29 18:15:00
2:35 PM,93.2,68.0,44,29.96,10.0,NNW,3.5,-,N/A,,Clear,330,2013-08-29 18:35:00
2:55 PM,93.2,69.8,46,29.95,10.0,Calm,Calm,-,N/A,,Clear,0,2013-08-29 18:55:00
3:15 PM,95.0,73.4,49,29.94,10.0,Calm,Calm,-,N/A,,Clear,0,2013-08-29 19:15:00
3:35 PM,95.0,71.6,47,29.94,10.0,NNW,3.5,-,N/A,,Clear,330,2013-08-29 19:35:00
3:55 PM,95.0,71.6,47,29.93,10.0,WSW,3.5,-,N/A,,Clear,240,2013-08-29 19:55:00
4:15 PM,95.0,71.6,47,29.93,10.0,Calm,Calm,-,N/A,,Clear,0,2013-08-29 20:15:00
4:35 PM,95.0,71.6,47,29.92,10.0,West,3.5,-,N/A,,Clear,270,2013-08-29 20:35:00
4:55 PM,91.4,69.8,49,29.92,10.0,Calm,Calm,-,N/A,,Clear,0,2013-08-29 20:55:00
5:15 PM,87.8,71.6,58,29.92,10.0,Calm,Calm,-,N/A,,Clear,0,2013-08-29 21:15:00
5:35 PM,86.0,73.4,66,29.92,10.0,WNW,6.9,-,N/A,,Clear,300,2013-08-29 21:35:00
5:55 PM,82.4,71.6,70,29.92,10.0,West,4.6,-,N/A,,Clear,280,2013-08-29 21:55:00
6:15 PM,86.0,73.4,66,29.92,10.0,West,4.6,-,N/A,,Clear,260,2013-08-29 22:15:00
6:35 PM,86.0,71.6,62,29.92,10.0,Calm,Calm,-,N/A,,Clear,0,2013-08-29 22:35:00
6:55 PM,86.0,71.6,62,29.91,10.0,Calm,Calm,-,N/A,,Clear,0,2013-08-29 22:55:00
7:15 PM,86.0,73.4,66,29.91,10.0,Calm,Calm,-,N/A,,Clear,0,2013-08-29 23:15:00
7:35 PM,82.4,73.4,74,29.92,10.0,Calm,Calm,-,N/A,,Clear,0,2013-08-29 23:35:00
7:55 PM,80.6,77.0,89,29.92,10.0,Calm,Calm,-,N/A,,Clear,0,2013-08-29 23:55:00
8:15 PM,80.6,77.0,89,29.94,10.0,Calm,Calm,-,N/A,,Clear,0,2013-08-30 00:15:00
8:35 PM,80.6,78.8,94,29.94,10.0,Calm,Calm,-,N/A,,Clear,0,2013-08-30 00:35:00
8:55 PM,80.6,78.8,94,29.94,10.0,Calm,Calm,-,N/A,,Clear,0,2013-08-30 00:55:00
9:15 PM,80.6,78.8,94,29.95,10.0,Calm,Calm,-,N/A,,Clear,0,2013-08-30 01:15:00
9:35 PM,80.6,78.8,94,29.96,10.0,Calm,Calm,-,N/A,Thunderstorm,Thunderstorm,0,2013-08-30 01:35:00
9:55 PM,80.6,78.8,94,29.96,10.0,NW,3.5,-,N/A,,Clear,320,2013-08-30 01:55:00
10:15 PM,80.6,78.8,94,29.96,10.0,Calm,Calm,-,N/A,,Clear,0,2013-08-30 02:15:00
10:35 PM,80.6,78.8,94,29.96,7.0,Calm,Calm,-,N/A,,Clear,0,2013-08-30 02:35:00
10:55 PM,80.6,78.8,94,29.96,10.0,West,5.8,-,N/A,Thunderstorm,Clear,270,2013-08-30 02:55:00
11:15 PM,80.6,78.8,94,29.96,10.0,Calm,Calm,-,N/A,,Clear,0,2013-08-30 03:15:00
11:35 PM,77.0,77.0,100,29.96,7.0,Calm,Calm,-,N/A,,Clear,0,2013-08-30 03:35:00
11:55 PM,75.2,75.2,100,29.95,7.0,Calm,Calm,-,N/A,,Clear,0,2013-08-30 03:55:00